| time (UTC) | temp F | wind direction | speed knots | gust knots | rain 1hr in | rain 24hr in | rain mn in | humidity % | barometer mb |
| 20260903070103 | 58 | 45 | 0.9 | 2.6 | 0.00 | 0.00 | 0.00 | 93 | 1020.3 |
| 20260903065100 | 57 | 0.0 | 1.7 | 0.00 | 0.00 | 0.00 | 94 | 1020.3 | |
| 20260903064117 | 56 | 0.0 | 1.7 | 0.00 | 0.00 | 0.00 | 96 | 1020.3 | |
| 20260903063054 | 54 | 0.0 | 1.7 | 0.00 | 0.00 | 0.00 | 97 | 1020.3 | |
| 20260903062051 | 53 | 0.0 | 1.7 | 0.00 | 0.00 | 0.00 | 99 | 1020.5 | |
| 20260903061128 | 52 | 0.0 | 0.0 | 0.00 | 0.00 | 0.00 | 99 | 1020.4 | |
| 20260903060044 | 52 | 0.0 | 0.0 | 0.00 | 0.00 | 0.00 | 99 | 1020.6 | |
| 20260903054038 | 50 | 0.0 | 0.0 | 0.00 | 0.00 | 0.00 | 99 | 1020.5 | |
| 20260903053055 | 49 | 0.0 | 0.0 | 0.00 | 0.00 | 0.00 | 99 | 1020.3 | |
| 20260903052052 | 48 | 0.0 | 0.0 | 0.00 | 0.00 | 0.00 | 99 | 1020.2 | |
| 20260903051029 | 47 | 0.0 | 0.0 | 0.00 | 0.00 | 0.00 | 99 | 1020.1 | |
| 20260903045022 | 46 | 0.0 | 0.0 | 0.00 | 0.00 | 0.00 | 99 | 1019.9 | |
| 20260903043016 | 46 | 0.0 | 0.0 | 0.00 | 0.00 | 0.00 | 99 | 1019.9 | |
| 20260903042113 | 46 | 0.0 | 0.0 | 0.00 | 0.00 | 0.00 | 99 | 1020.0 | |
| 20260903041110 | 47 | 0.0 | 0.0 | 0.00 | 0.00 | 0.00 | 99 | 1019.9 | |
| 20260903035123 | 47 | 0.0 | 0.0 | 0.00 | 0.00 | 0.00 | 99 | 1020.0 | |
| 20260903034100 | 47 | 0.0 | 0.0 | 0.00 | 0.00 | 0.00 | 99 | 1020.1 | |
| 20260903033057 | 47 | 0.0 | 0.0 | 0.00 | 0.00 | 0.00 | 99 | 1020.1 | |
| 20260903031050 | 47 | 0.0 | 0.0 | 0.00 | 0.00 | 0.00 | 99 | 1020.1 | |
| 20260903030048 | 47 | 0.0 | 0.0 | 0.00 | 0.00 | 0.00 | 99 | 1020.1 | |
| 20260903024041 | 47 | 0.0 | 0.0 | 0.00 | 0.00 | 0.00 | 99 | 1020.0 | |
| 20260903021031 | 49 | 0.0 | 0.0 | 0.00 | 0.00 | 0.00 | 99 | 1020.2 | |
| 20260903020028 | 48 | 0.0 | 0.0 | 0.00 | 0.00 | 0.00 | 99 | 1020.1 | |
| 20260903013040 | 48 | 0.0 | 0.0 | 0.00 | 0.00 | 0.00 | 99 | 1020.0 | |
| 20260903012015 | 49 | 0.0 | 0.0 | 0.00 | 0.00 | 0.00 | 99 | 1020.1 | |
| 20260903011112 | 49 | 0.0 | 0.0 | 0.00 | 0.00 | 0.00 | 99 | 1020.2 | |
| 20260903010109 | 50 | 0.0 | 0.0 | 0.00 | 0.00 | 0.00 | 99 | 1020.1 | |
| 20260903005125 | 50 | 0.0 | 0.0 | 0.00 | 0.00 | 0.00 | 99 | 1020.1 | |
| 20260903004102 | 50 | 0.0 | 0.0 | 0.00 | 0.00 | 0.00 | 99 | 1020.0 | |
| 20260903003059 | 50 | 0.0 | 0.0 | 0.00 | 0.00 | 0.00 | 99 | 1020.0 | |
| 20260903002056 | 51 | 0.0 | 0.0 | 0.00 | 0.00 | 0.00 | 99 | 1020.1 | |
| 20260903001053 | 52 | 0.0 | 0.0 | 0.00 | 0.00 | 0.00 | 99 | 1020.0 | |
| 20260903000049 | 52 | 0.0 | 0.0 | 0.00 | 0.00 | 0.00 | 99 | 1020.0 | |
| 20260902235039 | 53 | 0.0 | 0.0 | 0.00 | 0.00 | 0.00 | 99 | 1020.0 | |
| 20260902234035 | 53 | 0.0 | 0.0 | 0.00 | 0.00 | 0.00 | 99 | 1020.0 | |
| 20260902233030 | 54 | 0.0 | 0.0 | 0.00 | 0.00 | 0.00 | 98 | 1019.9 | |
| 20260902231042 | 54 | 0.0 | 0.0 | 0.00 | 0.00 | 0.00 | 98 | 1019.9 | |
| 20260902230018 | 55 | 0.0 | 0.0 | 0.00 | 0.00 | 0.00 | 98 | 1019.9 | |
| 20260902225016 | 56 | 0.0 | 0.0 | 0.00 | 0.00 | 0.00 | 97 | 1020.0 | |
| 20260902224113 | 57 | 0.0 | 0.0 | 0.00 | 0.00 | 0.00 | 97 | 1019.9 | |
| 20260902223109 | 57 | 0.0 | 0.0 | 0.00 | 0.00 | 0.00 | 97 | 1019.9 | |
| 20260902221123 | 58 | 0.0 | 0.0 | 0.00 | 0.00 | 0.00 | 97 | 1019.9 | |
| 20260902220100 | 58 | 0.0 | 0.0 | 0.00 | 0.00 | 0.00 | 97 | 1019.9 | |
| 20260902215056 | 58 | 0.0 | 0.0 | 0.00 | 0.00 | 0.00 | 97 | 1019.8 | |
| 20260902213050 | 58 | 0.0 | 0.0 | 0.00 | 0.00 | 0.00 | 97 | 1019.9 | |
| 20260902211044 | 57 | 0.0 | 0.0 | 0.00 | 0.00 | 0.00 | 97 | 1019.8 | |
| 20260902210041 | 57 | 0.0 | 0.0 | 0.00 | 0.00 | 0.00 | 97 | 1019.8 | |
| 20260902205038 | 56 | 0.0 | 0.0 | 0.00 | 0.00 | 0.00 | 97 | 1019.8 | |
| 20260902204034 | 56 | 0.0 | 0.0 | 0.00 | 0.00 | 0.00 | 96 | 1019.8 | |
| 20260902203032 | 56 | 0.0 | 0.0 | 0.00 | 0.00 | 0.00 | 95 | 1019.7 | |
| 20260902202028 | 57 | 0.0 | 0.0 | 0.00 | 0.00 | 0.00 | 95 | 1019.7 | |
| 20260902201025 | 58 | 0.0 | 0.0 | 0.00 | 0.00 | 0.00 | 93 | 1019.5 | |
| 20260902200022 | 58 | 0.0 | 0.0 | 0.00 | 0.00 | 0.00 | 93 | 1019.4 | |
| 20260902195018 | 58 | 0.0 | 0.0 | 0.00 | 0.00 | 0.00 | 93 | 1019.4 | |
| 20260902194036 | 58 | 0.0 | 0.0 | 0.00 | 0.00 | 0.00 | 93 | 1019.3 | |
| 20260902192109 | 59 | 0.0 | 0.0 | 0.00 | 0.00 | 0.00 | 93 | 1019.2 | |
| 20260902191106 | 59 | 0.0 | 0.0 | 0.00 | 0.00 | 0.00 | 92 | 1019.1 | |
| 20260902182050 | 60 | 0.0 | 0.0 | 0.00 | 0.00 | 0.00 | 88 | 1018.8 | |
| 20260902181047 | 61 | 0.0 | 0.0 | 0.00 | 0.00 | 0.00 | 88 | 1018.7 | |
| 20260902180104 | 62 | 0.0 | 0.0 | 0.00 | 0.00 | 0.00 | 86 | 1018.6 | |
| 20260902175041 | 63 | 0.0 | 0.0 | 0.00 | 0.00 | 0.00 | 85 | 1018.6 | |
| 20260902174038 | 64 | 0.0 | 0.0 | 0.00 | 0.00 | 0.00 | 81 | 1018.5 | |
| 20260902173034 | 66 | 0.0 | 0.0 | 0.00 | 0.00 | 0.00 | 79 | 1018.5 | |
| 20260902172031 | 69 | 0.0 | 0.0 | 0.00 | 0.00 | 0.00 | 71 | 1018.5 | |
| 20260902171108 | 70 | 0.0 | 1.7 | 0.00 | 0.00 | 0.00 | 62 | 1018.5 | |
| 20260902170025 | 71 | 0.0 | 1.7 | 0.00 | 0.00 | 0.00 | 61 | 1018.4 | |
| 20260902165022 | 72 | 0.0 | 0.9 | 0.00 | 0.00 | 0.00 | 63 | 1018.3 | |
| 20260902163016 | 72 | 198 | 0.9 | 5.2 | 0.00 | 0.00 | 0.00 | 63 | 1018.4 |
| 20260902162113 | 73 | 266 | 0.9 | 3.5 | 0.00 | 0.00 | 0.00 | 62 | 1018.3 |
| 20260902161110 | 74 | 225 | 0.0 | 2.6 | 0.00 | 0.00 | 0.00 | 61 | 1018.3 |
| 20260902160106 | 73 | 190 | 0.0 | 4.3 | 0.00 | 0.00 | 0.00 | 64 | 1018.2 |
| 20260902155103 | 73 | 0.0 | 1.7 | 0.00 | 0.00 | 0.00 | 64 | 1018.3 | |
| 20260902154059 | 73 | 283 | 0.9 | 4.3 | 0.00 | 0.00 | 0.00 | 64 | 1018.5 |
| 20260902153056 | 75 | 180 | 0.0 | 1.7 | 0.00 | 0.00 | 0.00 | 64 | 1018.5 |
| 20260902152053 | 75 | 186 | 0.9 | 5.2 | 0.00 | 0.00 | 0.00 | 61 | 1018.5 |
| 20260902151050 | 74 | 225 | 0.0 | 2.6 | 0.00 | 0.00 | 0.00 | 62 | 1018.6 |
| 20260902150047 | 74 | 158 | 0.0 | 1.7 | 0.00 | 0.00 | 0.00 | 63 | 1018.6 |
| 20260902145043 | 74 | 209 | 0.9 | 3.5 | 0.00 | 0.00 | 0.00 | 63 | 1018.7 |
| 20260902143037 | 75 | 251 | 0.9 | 3.5 | 0.00 | 0.00 | 0.00 | 64 | 1018.7 |
| 20260902141031 | 76 | 247 | 0.9 | 3.5 | 0.00 | 0.00 | 0.00 | 60 | 1018.7 |
| 20260902135025 | 75 | 272 | 0.9 | 5.2 | 0.00 | 0.00 | 0.00 | 60 | 1018.6 |
| 20260902134021 | 74 | 219 | 0.9 | 6.1 | 0.00 | 0.00 | 0.00 | 63 | 1018.7 |
| 20260902133018 | 74 | 224 | 1.7 | 6.1 | 0.00 | 0.00 | 0.00 | 63 | 1018.7 |
| 20260902132015 | 74 | 230 | 0.9 | 5.2 | 0.00 | 0.00 | 0.00 | 63 | 1018.8 |
| 20260902131112 | 74 | 203 | 0.9 | 3.5 | 0.00 | 0.00 | 0.00 | 62 | 1018.9 |
| 20260902130109 | 75 | 180 | 0.9 | 2.6 | 0.00 | 0.00 | 0.00 | 62 | 1019.0 |
| 20260902125106 | 75 | 230 | 1.7 | 4.3 | 0.00 | 0.00 | 0.00 | 61 | 1019.0 |
| 20260902124122 | 75 | 327 | 1.7 | 6.1 | 0.00 | 0.00 | 0.00 | 59 | 1019.0 |
| 20260902121053 | 76 | 211 | 0.9 | 4.3 | 0.00 | 0.00 | 0.00 | 60 | 1019.1 |
| 20260902120049 | 74 | 338 | 1.7 | 5.2 | 0.00 | 0.00 | 0.00 | 61 | 1019.1 |
| 20260902115046 | 73 | 236 | 0.9 | 3.5 | 0.00 | 0.00 | 0.00 | 65 | 1019.2 |
| 20260902114042 | 74 | 238 | 1.7 | 5.2 | 0.00 | 0.00 | 0.00 | 64 | 1019.5 |
| 20260902113040 | 75 | 240 | 0.9 | 3.5 | 0.00 | 0.00 | 0.00 | 60 | 1019.5 |
| 20260902112036 | 74 | 0.0 | 1.7 | 0.00 | 0.00 | 0.00 | 62 | 1019.6 | |
| 20260902110050 | 71 | 223 | 1.7 | 7.0 | 0.00 | 0.00 | 0.00 | 68 | 1019.8 |
| 20260902104023 | 73 | 228 | 0.9 | 3.5 | 0.00 | 0.00 | 0.00 | 67 | 1019.9 |
| 20260902103040 | 71 | 0.0 | 1.7 | 0.00 | 0.00 | 0.00 | 72 | 1019.9 | |
| 20260902102018 | 70 | 68 | 0.0 | 2.6 | 0.00 | 0.00 | 0.00 | 75 | 1020.0 |
| 20260902101114 | 69 | 90 | 0.0 | 2.6 | 0.00 | 0.00 | 0.00 | 78 | 1020.1 |
| 20260902100131 | 68 | 167 | 0.0 | 1.7 | 0.00 | 0.00 | 0.00 | 79 | 1020.2 |
| 20260902095108 | 67 | 0.0 | 1.7 | 0.00 | 0.00 | 0.00 | 80 | 1020.4 | |
| 20260902094105 | 66 | 0.0 | 0.9 | 0.00 | 0.00 | 0.00 | 83 | 1020.4 | |
| 20260902093102 | 65 | 0.0 | 0.9 | 0.00 | 0.00 | 0.00 | 85 | 1020.4 | |
| 20260902092059 | 65 | 0.0 | 0.9 | 0.00 | 0.00 | 0.00 | 85 | 1020.4 | |
| 20260902084046 | 61 | 90 | 0.0 | 1.7 | 0.00 | 0.00 | 0.00 | 90 | 1020.2 |
| 20260902082040 | 61 | 0 | 0.0 | 1.7 | 0.00 | 0.00 | 0.00 | 91 | 1020.4 |
| 20260902081036 | 60 | 90 | 0.0 | 1.7 | 0.00 | 0.00 | 0.00 | 91 | 1020.3 |
| 20260902080033 | 60 | 0 | 0.0 | 1.7 | 0.00 | 0.00 | 0.00 | 93 | 1020.2 |
| 20260902075051 | 58 | 0.0 | 1.7 | 0.00 | 0.00 | 0.00 | 93 | 1020.3 | |
| 20260902073024 | 56 | 0.0 | 0.9 | 0.00 | 0.00 | 0.00 | 97 | 1020.2 | |
| 20260902072021 | 56 | 0.0 | 0.0 | 0.00 | 0.00 | 0.00 | 98 | 1020.3 |